Zacatecas Airport, Mexico

9:10 PM CDT on September 26, 2016 (GMT -0500)
Gen Leobardo C Ruiz International

Weather History for MMZC - November, 2012

Change the Weather History Date:

Saturday, November 17, 2012

  Actual Average Record
Temperature  
Mean Temperature 58 °F -  
Max Temperature 73 °F 70 °F 75 °F (2000)
Min Temperature 42 °F 36 °F 21 °F (2002)
Degree Days  
Heating Degree Days 8    
Growing Degree Days 8 (Base 50)    
Moisture  
Dew Point 41 °F    
Average Humidity 58    
Maximum Humidity 81    
Minimum Humidity 33    
Precipitation  
Precipitation 0.00 in - - ()
Sea Level Pressure  
Sea Level Pressure 30.37 in    
Wind  
Wind Speed 2 mph ()    
Max Wind Speed 9 mph    
Max Gust Speed -    
Visibility 10.0 miles    
Events      
Averages and records for this station are not official NWS values.
T = Trace of Precipitation, MM = Missing Value Source: Averaged Metar Reports

Daily Weather History Graph

Daily Weather History Graph

Search for Another Location

Airport or City:

Trip Planner

Search our weather history database for the weather conditions in past years. The results will help you decide how hot, cold, wet, or windy it might be!

Date:

Astronomy

Nov. 17, 2012 Rise Set
Actual Time 7:05 AM CST 6:05 PM CST
Civil Twilight 6:41 AM CST 6:29 PM CST
Nautical Twilight 6:14 AM CST 6:56 PM CST
Astronomical Twilight 5:47 AM CST 7:23 PM CST
Moon 10:51 AM CST (11/17) 10:15 PM CST (11/17)
Length of Visible Light 11h 47m
Length of Day
11h 00m
Waxing Crescent, 20% of the Moon is Illuminated
Nov 17
Waxing Crescent
Nov 20
First Quarter
Nov 28
Full
Dec 6
Last Quarter
Dec 13
New

Hourly Weather History & Observations

Time (CST) Temp. Windchill Dew Point Humidity Pressure Visibility Wind Dir Wind Speed Gust Speed Precip Events Conditions
12:52 AM 50.0 °F - 39.2 °F 66% 30.36 in 10.0 mi WNW 3.5 mph - N/A   Clear
3:30 AM 46.4 °F 44.3 °F 37.4 °F 71% 30.34 in 10.0 mi WSW 4.6 mph - N/A   Clear
5:07 AM 42.8 °F - 33.8 °F 70% 30.35 in 10.0 mi Calm Calm - N/A   Clear
5:48 AM 42.8 °F 38.0 °F 37.4 °F 81% 30.36 in 10.0 mi NE 8.1 mph - N/A   Partly Cloudy
6:43 AM 42.8 °F - 35.6 °F 76% 30.38 in 10.0 mi Calm Calm - N/A   Partly Cloudy
7:43 AM 44.6 °F - 39.2 °F 81% 30.40 in 10.0 mi Calm Calm - N/A   Scattered Clouds
8:52 AM 50.0 °F - 41.0 °F 71% 30.42 in 10.0 mi Calm Calm - N/A   Clear
9:42 AM 57.2 °F - 42.8 °F 59% 30.43 in 10.0 mi Calm Calm - N/A   Clear
10:42 AM 62.6 °F - 44.6 °F 52% 30.42 in 10.0 mi Calm Calm - N/A   Clear
11:45 AM 68.0 °F - 44.6 °F 43% 30.40 in 10.0 mi Calm Calm - N/A   Clear
1:42 PM 71.6 °F - 41.0 °F 33% 30.33 in 10.0 mi Calm Calm - N/A   Scattered Clouds
2:42 PM 73.4 °F - 42.8 °F 33% 30.31 in 10.0 mi SE 9.2 mph - N/A   Scattered Clouds
5:50 PM 68.0 °F - 39.2 °F 35% 30.31 in 10.0 mi ESE 6.9 mph - N/A   Mostly Cloudy
6:44 PM 64.4 °F - 39.2 °F 40% 30.32 in 10.0 mi East 8.1 mph - N/A   Mostly Cloudy
7:43 PM 62.6 °F - 42.8 °F 48% 30.35 in 10.0 mi SE 4.6 mph - N/A   Clear
8:44 PM 57.2 °F - 42.8 °F 59% 30.35 in 10.0 mi South 3.5 mph - N/A   Clear
9:59 PM 57.2 °F - 39.2 °F 51% 30.37 in 10.0 mi Calm Calm - N/A   Clear
10:49 PM 57.2 °F - 44.6 °F 63% 30.37 in 10.0 mi Calm Calm - N/A   Clear
11:48 PM 55.4 °F - 42.8 °F 63% 30.37 in 10.0 mi Calm Calm - N/A   Clear